Location: Fleischmann Planetarium and Science Center
(39.5456°N, 119.8190°W)
Time: 11:37:51
(UTC-07:00)

Daily predictions for brighter satellites

Satellite Brightness Start Highest point End
(mag) Time Altitude Azimuth Time Altitude Azimuth Time Altitude Azimuth
S3M 4.0 20:55:04 10° N 21:01:13 86° E 21:07:22 10° S
Delta 2 Rocket 3.5 21:01:30 10° WSW 21:05:02 39° S 21:08:17 10° ESE
Envisat 3.5 21:00:51 10° SE 21:05:39 44° ENE 21:10:28 10° N
Resurs 01 Rocket 4.5 21:03:46 10° SW 21:06:08 14° W 21:08:31 10° WNW
ERS-1 Rocket 3.0 21:01:28 10° SSE 21:06:29 77° ENE 21:11:32 10° N
Cosmos 1441 Rocket 3.2 21:02:52 10° S 21:06:39 84° WNW 21:10:24 10° N
deb Chang Zheng 4 3.6 21:05:02 10° NNE 21:09:19 59° ESE 21:13:36 10° S
Cosmos 2219 3.8 21:04:18 10° S 21:09:33 38° ESE 21:14:49 10° NE
Cosmos 2237 Rocket 4.4 21:14:20 10° NNE 21:16:23 12° NE 21:18:26 10° ENE
Cosmos 2151 3.3 21:13:22 10° SSE 21:17:21 44° E 21:21:22 10° NNE
Cosmos 2112 Rocket 4.5 21:13:52 10° N 21:18:55 46° ENE 21:23:46 11° SE
Cosmos 2322 3.9 21:13:42 10° NNW 21:19:24 65° ENE 21:25:00 10° SSE
Cosmos 2322 Rocket 3.3 21:14:29 10° NW 21:19:45 42° WSW 21:25:00 10° S
USA 186 3.9 21:18:27 10° SW 21:19:52 15° W 21:21:18 10° NW
Cosmos 1515 Rocket 3.8 21:16:15 10° NNW 21:20:41 72° W 21:25:03 10° S
Cosmos 1777 Rocket 4.5 21:17:50 10° SSW 21:23:04 67° WNW 21:28:19 10° NNE
CZ-4 SHROUD 3.9 21:24:12 13° SE 21:26:41 37° ENE 21:29:37 10° N
Sich 1 4.4 21:25:43 12° SE 21:28:36 22° E 21:31:59 10° NE
Cosmos 2360 Rocket 2.2 21:23:03 10° NNW 21:28:45 80° ENE 21:34:09 11° SSE
Cosmos 1908 3.3 21:26:07 10° N 21:30:03 85° W 21:33:58 10° S
Nimbus 7 Rocket 4.4 21:24:55 10° NNE 21:30:47 75° ESE 21:36:38 10° S
SL-16 R/B 3.5 21:26:11 10° NW 21:31:20 37° WSW 21:36:27 10° S
USA 245 4.3 21:31:02 13° E 21:31:52 14° ENE 21:33:15 10° NE
Cosmos 883 Rocket 4.5 21:25:41 10° N 21:31:54 75° E 21:38:01 10° SSE
Cosmos 2058 3.5 21:28:17 10° SSE 21:32:05 38° E 21:35:53 10° NNE
NOSS 3-1 (C) 3.5 21:26:48 10° S 21:32:21 50° ESE 21:38:28 10° NE
Cosmos 1633 Rocket 4.4 21:29:42 13° SE 21:32:22 23° E 21:35:47 10° NE
DELTA 2 R/B (1) 3.7 21:28:45 10° W 21:34:14 62° SSW 21:38:52 14° ESE
Cosmos 405 3.2 21:32:39 10° NNW 21:36:17 75° W 21:39:53 10° S
Cosmos 1674 3.0 21:33:04 10° SSW 21:36:53 68° W 21:40:44 10° N
Cosmos 1151 Rocket 3.1 21:32:55 10° N 21:37:15 83° W 21:41:35 10° S
OAO 2 Rocket 4.2 21:32:56 10° SW 21:37:38 32° SSE 21:42:20 10° E
SL-23 DEB 4.0 21:40:36 10° NW 21:45:49 73° NE 21:48:12 20° ESE
Tiangong 1 1.1 21:43:08 10° SW 21:46:09 53° SSE 21:49:11 10° ENE
Cosmos 1805 Rocket 3.7 21:43:27 10° S 21:47:46 58° E 21:52:09 10° NNE
YAOGAN 6 2.9 21:47:15 20° SE 21:49:33 52° ENE 21:53:04 10° N
Cosmos 1300 3.1 21:47:02 10° N 21:50:46 46° E 21:52:56 22° SE
H-2A R/B 3.6 21:48:40 14° ESE 21:51:53 24° ENE 21:56:07 10° NNE
CZ-4B R/B 3.7 21:46:53 10° NNE 21:52:04 55° E 21:56:59 11° S
Cosmos 2266 Rocket 4.5 21:47:56 10° SSW 21:54:10 63° W 22:00:20 10° N
Cosmos 2227 Rocket 3.4 21:53:14 19° SE 21:55:21 23° E 21:59:41 10° NE
Cosmos 1680 Rocket 3.7 21:50:13 10° NNW 21:55:26 70° WSW 21:59:53 14° S
Meteor 1-11 4.3 21:50:16 10° S 21:55:56 62° E 22:01:36 10° NNE
Cosmos 2315 Rocket 4.0 21:55:11 10° N 22:01:25 90° NE 22:06:50 14° S
Cosmos 1939 Rocket 4.3 21:58:07 10° SSW 22:01:42 33° W 22:05:16 10° NNW
SPOT 1/Viking Rocket 3.6 22:00:26 20° SSE 22:03:59 68° ENE 22:09:08 10° N
H-2A R/B 3.6 22:00:19 10° SSW 22:04:27 35° W 22:08:35 10° NNW
PSLV R/B 4.0 22:05:23 18° SSW 22:07:22 45° W 22:10:19 10° NNW
Cosmos 1898 Rocket 3.5 22:02:18 10° S 22:07:24 63° ESE 22:12:33 10° NNE
Cosmos 1707 Rocket 3.5 22:03:05 10° N 22:07:28 78° E 22:10:07 23° SSE
Cosmos 2333 Rocket 3.3 22:04:53 10° N 22:10:03 33° ENE 22:13:18 19° ESE
SL-16 R/B 4.3 22:07:07 10° NNE 22:10:04 14° NE 22:13:00 10° E
Cosmos 220 Rocket 4.5 22:08:18 25° SSE 22:10:17 41° ESE 22:14:27 10° NNE
Cosmos 1666 Rocket 3.5 22:07:02 17° S 22:10:19 76° E 22:14:46 10° N
Cosmos 858 Rocket 4.5 22:07:51 12° S 22:12:42 64° ESE 22:17:51 10° NNE
Cosmos 1455 3.8 22:10:24 10° NNE 22:13:12 19° ENE 22:13:51 19° E
Cosmos 2150 Rocket 4.0 22:09:36 10° SSW 22:15:02 77° ESE 22:20:31 10° NNE
SPOT 5 3.6 22:11:50 13° S 22:15:39 46° W 22:20:18 10° NNW
Meteor 2-11 Rocket 4.4 22:14:26 10° N 22:20:38 90° W 22:24:52 21° S
COSMOS 2428 2.7 22:16:17 10° NNW 22:21:58 79° WSW 22:25:19 26° SSE
Cosmos 2297 Rocket 3.1 22:21:13 25° ESE 22:22:18 27° ESE 22:26:57 10° NE
Cosmos 1470 Rocket 4.1 22:22:50 33° SE 22:23:58 40° E 22:27:59 10° NNE
Nadezhda 1 Rocket 4.4 22:18:11 10° N 22:24:01 46° ENE 22:26:55 27° SE
Cosmos 1933 Rocket 4.1 22:23:56 33° SE 22:25:10 40° E 22:29:21 10° NNE
CZ-3A R/B 4.2 22:07:54 10° WSW 22:25:44 29° SSW 22:28:13 23° S
ARGOS 3.1 22:22:33 25° SSE 22:25:49 90° E 22:31:15 10° NNW
Cosmos 2219 Rocket 2.4 22:24:10 10° NNW 22:29:43 60° ENE 22:32:19 31° SE
Cosmos 1726 2.4 22:27:31 10° NNW 22:31:17 66° W 22:32:47 33° SSW
SL-08 R/B 4.4 22:29:27 21° S 22:33:50 80° E 22:40:08 10° N
Cosmos 1745 Rocket 3.9 22:31:50 24° S 22:35:41 71° E 22:41:51 10° NNE
CZ-4C R/B 2.9 22:35:43 56° SE 22:36:18 71° ENE 22:39:46 10° N
NOSS 3-1 (A) 3.6 22:30:29 10° SW 22:36:20 75° NW 22:42:51 10° NNE
ERBS 3.0 22:38:38 39° ENE 22:38:38 39° ENE 22:41:08 10° NE
DMSP B5D2-2 4.3 22:35:34 10° NNE 22:40:40 51° E 22:42:19 37° SSE
Cosmos 292 Rocket 3.7 22:41:27 10° NNW 22:46:13 81° WSW 22:47:50 42° S
Landsat 7 3.7 22:44:50 40° SSE 22:46:35 89° ENE 22:51:22 10° NNW
NOSS 0 Rocket 3.9 22:40:28 10° NNW 22:46:38 74° ENE 22:49:19 36° SE
Delta 2 Rocket 4.1 22:43:56 10° WSW 22:46:07 29° SW 22:46:07 29° SW
USA 32 4.1 22:42:26 10° N 22:47:42 76° W 22:50:14 31° S
Cosmos 1346 3.6 22:49:27 50° NE 22:49:27 50° NE 22:51:52 10° NNE
Cosmos 1980 3.8 22:43:18 10° NNW 22:48:55 62° ENE 22:51:01 37° SE
Cosmos 1271 Rocket 3.0 22:45:48 10° NNW 22:49:36 63° W 22:50:33 45° SSW
Meteor 1-4 Rocket 3.3 22:49:46 10° NNW 22:53:25 49° W 22:54:14 40° SW
Cosmos 1703 3.7 22:52:05 34° SW 22:53:32 57° W 22:57:24 10° N
Iridium 2 4.1 22:57:23 42° SW 22:58:22 58° W 23:02:12 10° N
ATLAS 2AS CENTAUR R/B 2.9 22:52:53 18° SSW 22:58:34 66° ESE 23:06:29 10° NE
Cosmos 2242 Rocket 4.4 22:55:44 10° NNW 23:00:01 46° W 23:01:45 31° SW
Cosmos 1386 Rocket 4.3 22:57:19 35° S 23:00:03 81° E 23:06:05 10° N
Cosmos 2237 Rocket 2.2 22:55:46 10° NNW 23:01:30 73° ENE 23:03:21 44° SE
Terra 1.7 23:01:11 50° SSE 23:02:26 90° ESE 23:07:13 10° NNW
Meteor 2-10 4.4 22:57:01 10° NNW 23:02:42 69° W 23:05:09 35° S
Cosmos 2082 3.6 23:01:36 28° SSW 23:04:44 87° ESE 23:10:29 10° NNE
Lacrosse 4 Rocket 3.1 23:01:17 10° N 23:05:00 25° NE 23:06:05 23° ENE
Cosmos 1937 Rocket 4.2 23:01:34 13° SW 23:06:06 52° WNW 23:11:11 10° N
CARTOSAT-1 3.5 23:05:23 57° S 23:06:12 76° WSW 23:10:32 10° NNW
Cosmos 1862 Rocket 3.4 23:01:53 10° N 23:06:15 89° E 23:06:53 65° S
Spot 4 3.8 23:05:42 53° SSE 23:06:48 78° ENE 23:11:40 10° N
BREEZE-M DEB (TANK) 4.0 23:11:13 35° E 23:11:13 35° E 23:16:01 10° ENE
Cosmos 1626 2.2 23:10:26 68° WSW 23:10:40 71° W 23:14:25 10° N
Cosmos 2181 Rocket 4.4 23:05:53 10° N 23:12:05 50° ENE 23:13:59 39° SE
ATLAS 3B R/B 3.2 23:08:39 10° NNW 23:15:29 50° NE 23:18:28 31° ESE
Cosmos 990 Rocket 4.4 23:13:44 24° SW 23:16:44 59° WNW 23:21:49 10° N
OAO 2 Rocket 3.7 23:16:54 10° WSW 23:21:19 48° SSW 23:21:19 48° SSW
Tiangong 1 2.9 23:19:46 10° W 23:21:29 27° WNW 23:21:29 27° WNW
FALCON 9 R/B 3.4 23:05:12 10° W 23:27:03 65° SSW 23:30:02 38° SE
H-2A R/B 2.9 23:29:19 35° SW 23:30:58 45° W 23:36:10 10° NNW
Cosmos 1933 3.5 23:27:00 10° N 23:30:44 64° NE 23:30:44 64° NE
Cosmos 1869 Rocket 3.8 23:33:33 56° ENE 23:33:33 56° ENE 23:37:40 10° NNE
NOSS 2-3 (E) 4.3 23:34:03 46° E 23:34:03 46° E 23:38:40 10° NE
Cosmos 1269 Rocket 4.0 23:28:48 10° NNW 23:34:08 73° ENE 23:34:54 62° SE
COSMOS 2455 3.0 23:28:56 10° NNW 23:34:57 66° ENE 23:36:29 49° ESE
H-2A R/B 4.4 23:34:06 10° NE 23:36:09 19° ENE 23:36:09 19° ENE
Cosmos 389 Rocket 4.1 23:35:40 10° N 23:37:58 29° NE 23:37:58 29° NE
Cosmos 2227 Rocket 3.0 23:34:58 18° SW 23:39:01 47° WNW 23:44:31 10° NNE
CZ-4B R/B 3.9 23:44:29 15° NE 23:44:29 15° NE 23:45:54 10° NNE
ALOS 2 4.0 23:46:38 28° ENE 23:46:38 28° ENE 23:50:23 10° N
Cosmos 1455 4.0 23:45:47 10° NW 23:48:53 24° W 23:48:54 24° W
SeaSat 1 2.8 23:49:07 50° E 23:49:45 54° ENE 23:54:34 10° NNW
Cosmos 2333 Rocket 3.2 23:49:06 10° NW 23:54:17 35° WSW 23:55:18 33° SW
